Change the Weather History Date:

Tuesday, November 16, 2010

  Actual Average Record
Temperature  
Mean Temperature 38 °F 43 °F  
Max Temperature 49 °F 52 °F 73 °F (2001)
Min Temperature 26 °F 34 °F 17 °F (1997)
Degree Days  
Heating Degree Days 27 22  
Month to date heating degree days 286 302  
Since 1 July heating degree days 584 720  
Cooling Degree Days 0 0  
Month to date cooling degree days 0 0  
Year to date cooling degree days 1493 1048  
Moisture  
Dew Point 27 °F    
Average Humidity 67    
Maximum Humidity 92    
Minimum Humidity 42    
Precipitation  
Precipitation 0.00 in 0.12 in 0.07 in (2013)
Month to date precipitation 0.24 1.79  
Year to date precipitation 33.55 34.27  
Sea Level Pressure  
Sea Level Pressure 29.73 in    
Wind  
Wind Speed 5 mph (North)    
Max Wind Speed 13 mph    
Max Gust Speed 17 mph    
Visibility 10 miles    
Events      
T = Trace of Precipitation, MM = Missing Value Source: NWS Daily Summary

Daily Weather History Graph

Daily Weather History Graph

Search for Another Location

Airport or City:

Trip Planner

Search our weather history database for the weather conditions in past years. The results will help you decide how hot, cold, wet, or windy it might be!

Date:

Astronomy

Nov. 16, 2010 Rise Set
Actual Time 6:41 AM CST 4:38 PM CST
Civil Twilight 6:12 AM CST 5:07 PM CST
Nautical Twilight 5:39 AM CST 5:40 PM CST
Astronomical Twilight 5:07 AM CST 6:12 PM CST
Moon 1:45 PM CST (11/16) 1:43 AM CST (11/16)
Length of Visible Light 10h 55m
Length of Day
9h 57m
Waxing Gibbous, 77% of the Moon is Illuminated
Nov 16
Waxing Gibbous
Nov 21
Full
Nov 28
Last Quarter
Dec 5
New
Dec 13
First Quarter

Hourly Weather History & Observations

Time (CST) Temp. Windchill Dew Point Humidity Pressure Visibility Wind Dir Wind Speed Gust Speed Precip Events Conditions
12:54 AM 30.0 °F 26.5 °F 24.1 °F 79% 29.85 in 10.0 mi SE 3.5 mph - N/A   Clear
1:54 AM 28.0 °F - 23.0 °F 81% 29.84 in 10.0 mi Calm Calm - N/A   Clear
2:54 AM 28.0 °F - 21.9 °F 78% 29.85 in 10.0 mi Calm Calm - N/A   Clear
3:54 AM 28.0 °F 24.2 °F 24.1 °F 85% 29.83 in 10.0 mi ENE 3.5 mph - N/A   Scattered Clouds
4:54 AM 30.0 °F 26.5 °F 25.0 °F 82% 29.82 in 9.0 mi NNE 3.5 mph - N/A   Clear
5:54 AM 30.9 °F 27.5 °F 26.1 °F 82% 29.78 in 9.0 mi North 3.5 mph - N/A   Clear
6:54 AM 27.0 °F 19.5 °F 24.1 °F 89% 29.76 in 6.0 mi NE 6.9 mph - N/A   Clear
7:54 AM 30.0 °F 26.5 °F 27.0 °F 88% 29.74 in 5.0 mi North 3.5 mph - N/A   Clear
8:54 AM 36.0 °F 31.1 °F 30.0 °F 79% 29.74 in 8.0 mi ENE 5.8 mph - N/A   Clear
9:54 AM 39.9 °F 35.8 °F 33.1 °F 77% 29.73 in 10.0 mi ENE 5.8 mph - N/A   Mostly Cloudy
10:54 AM 44.1 °F 39.5 °F 32.0 °F 63% 29.70 in 10.0 mi NE 8.1 mph - N/A   Partly Cloudy
11:54 AM 46.9 °F - 32.0 °F 56% 29.66 in 10.0 mi NNE 10.4 mph - N/A   Scattered Clouds
12:54 PM 48.0 °F - 30.9 °F 52% 29.62 in 10.0 mi North 6.9 mph - N/A   Scattered Clouds
1:54 PM 48.0 °F - 28.9 °F 48% 29.61 in 10.0 mi North 6.9 mph - N/A   Clear
2:54 PM 48.9 °F - 27.0 °F 43% 29.61 in 10.0 mi North 10.4 mph - N/A   Clear
3:54 PM 48.0 °F - 26.1 °F 42% 29.62 in 10.0 mi North 10.4 mph - N/A   Clear
4:54 PM 45.0 °F 40.6 °F 27.0 °F 49% 29.64 in 10.0 mi NNW 8.1 mph - N/A   Scattered Clouds
5:54 PM 43.0 °F 38.8 °F 27.0 °F 53% 29.66 in 10.0 mi NNW 6.9 mph - N/A   Partly Cloudy
6:54 PM 42.1 °F 38.4 °F 26.1 °F 53% 29.68 in 10.0 mi NNW 5.8 mph - N/A   Clear
7:54 PM 42.8 °F 41.1 °F 26.6 °F 53% 29.68 in 10.0 mi WNW 3.5 mph - N/A   Partly Cloudy
8:54 PM 36.0 °F - 26.1 °F 67% 29.73 in 10.0 mi Calm Calm - N/A   Partly Cloudy
9:54 PM 34.0 °F 31.0 °F 27.0 °F 75% 29.75 in 10.0 mi SSW 3.5 mph - N/A   Clear
10:54 PM 34.0 °F 29.8 °F 26.1 °F 73% 29.78 in 10.0 mi SW 4.6 mph - N/A   Clear
11:54 PM 33.1 °F 26.9 °F 25.0 °F 72% 29.80 in 10.0 mi SW 6.9 mph - N/A   Clear